Flag for Austria Weather past 2 weeks in Klagenfurt, Carinthia, Austria

50 °F


Feels Like: 50 °F
Forecast: 48 / 57 °F
Wind: 1 mph from North

Location: Klagenfurt-Flughafen

Current Time: Oct 9, 2015 at 5:33:52 AM

Latest Report: Oct 9, 2015 at 4:50 AM

Visibility: 2 mi

Pressure: 30.09 "Hg

Humidity: 100%

Dew point: 50 °F

Location of KlagenfurtLocation

Historic Weather in Klagenfurt — Graph


Klagenfurt temperature yesterday

Maximum temperature yesterday: 61 °F (at 11:50 AM)
Minimum temperature yesterday: 52 °F (at 11:20 PM)
Average temperature yesterday: 56 °F

Past Weeks' High & Low Weather Summary

High64 °F (Oct 4, 2:50 PM)100% (Sep 24, 6:20 AM)30.48 "Hg (Sep 24, 6:20 AM)
Low36 °F (Sep 29, 5:20 AM)45% (Sep 29, 2:50 PM)29.83 "Hg (Oct 7, 2:50 AM)
Average52 °F84%30.19 "Hg
* Reported Sep 24 3:20 AM — Oct 9 3:50 AM, Klagenfurt, Weather by CustomWeather, © 2015

Note: Actual official high and low records may vary slightly from our data, if they occured in-between our weather recording intervals... More about our weather records


Klagenfurt weather history for previous 24 hours

Time TempWeatherWind HumidityBarometerVisibility
3:50 AM
Fri, Oct 9
50 °FPartly cloudy.2 mph100%30.09 "HgN/A
3:20 AM50 °FPassing clouds.2 mph100%30.09 "HgN/A
2:50 AM52 °FPassing clouds.2 mph94%30.09 "HgN/A
2:20 AM52 °FPassing clouds.1 mph94%30.12 "HgN/A
1:50 AM52 °FOvercast.3 mph94%30.09 "HgN/A
1:20 AM52 °FPassing clouds.2 mph100%30.12 "HgN/A
12:50 AM52 °FPassing clouds.2 mph100%30.12 "HgN/A
12:20 AM52 °FPassing clouds.3 mph100%30.12 "HgN/A
11:50 PM
Thu, Oct 8
52 °FPassing clouds.2 mph100%30.12 "HgN/A
11:20 PM52 °FPassing clouds.1 mph100%30.12 "HgN/A
10:50 PM54 °FPartly cloudy.1 mph94%30.09 "HgN/A
10:20 PM54 °FPartly cloudy.2 mph94%30.09 "HgN/A
9:50 PM54 °FPartly cloudy.1 mph94%30.09 "HgN/A
9:20 PM55 °FPassing clouds.2 mph88%30.09 "HgN/A
8:50 PM55 °FPassing clouds.1 mph94%30.09 "HgN/A
8:20 PM55 °FPartly cloudy.1 mph94%30.09 "HgN/A
7:50 PM57 °FPartly cloudy.3 mph88%30.07 "HgN/A
7:20 PM57 °FBroken clouds.1 mph82%30.07 "HgN/A
6:50 PM57 °FBroken clouds.1 mph88%30.07 "HgN/A
6:20 PM59 °FBroken clouds.2 mph72%30.07 "HgN/A
5:50 PM61 °FBroken clouds.3 mph68%30.07 "HgN/A
5:20 PM61 °FPartly sunny.3 mph72%30.07 "HgN/A
4:50 PM61 °FPartly sunny.2 mph72%30.07 "HgN/A
4:20 PM61 °FBroken clouds.3 mph72%30.04 "HgN/A
3:50 PM61 °FBroken clouds.2 mph72%30.04 "HgN/A
3:20 PM61 °FBroken clouds.2 mph72%30.04 "HgN/A
2:50 PM61 °FBroken clouds.2 mph72%30.04 "HgN/A
2:20 PM61 °FBroken clouds.1 mph72%30.04 "HgN/A
1:50 PM61 °FBroken clouds.1 mph72%30.04 "HgN/A
1:20 PM61 °FBroken clouds.2 mph72%30.07 "HgN/A
12:50 PM61 °FLight rain. Broken clouds.2 mph72%30.07 "HgN/A
12:20 PM61 °FBroken clouds.2 mph72%30.07 "HgN/A
11:50 AM61 °FBroken clouds.2 mph77%30.07 "HgN/A
11:20 AM59 °FBroken clouds.1 mph82%30.07 "HgN/A
10:50 AM57 °FBroken clouds.2 mph88%30.07 "HgN/A
10:20 AM55 °FPartly sunny.2 mph94%30.07 "HgN/A
9:50 AM55 °FLight rain. Partly sunny.3 mph94%30.07 "HgN/A
9:20 AM55 °FLight rain. Broken clouds.3 mph94%30.04 "Hg4 mi
8:50 AM54 °FLight rain. Broken clouds.3 mph100%30.04 "Hg4 mi
8:20 AM54 °FLight rain. Broken clouds.2 mph100%30.04 "Hg4 mi
7:50 AM54 °FLight rain. Partly cloudy.1 mph100%30.01 "Hg4 mi
7:20 AM54 °FLight rain. Passing clouds.2 mph100%30.01 "Hg4 mi
6:50 AM54 °FLight rain. Passing clouds.1 mph100%30.01 "Hg4 mi
6:20 AM54 °FLight rain. Passing clouds.1 mph100%30.01 "Hg6 mi
5:20 AM54 °FLight rain. Partly cloudy.2 mph100%30.01 "Hg5 mi
Weather by CustomWeather, © 2015

See weather overviewHow to use our weather pages